Location: Peterborough
(44.3091°N, 78.3197°W)
Time: 07:08:02
(UTC-05:00)

A-11 Canister half - Pass Details

Date: 18 December 2023
Orbit: 1512 x 1687 km, 47.2° (Epoch: 25 February)

Event Time Altitude Azimuth Distance (km) Brightness Sun altitude
Exits shadow 02:23:30 12° 124° (SE) 3,727 11.1 -55.6°
Drops below altitude 10° 02:24:06 10° 124° (ESE) 3,914 11.3 -55.5°
Sets 02:27:17 0° 123° (ESE) 4,914 11.9 -55.0°
